Torna al catalogo

STARLINK-3812

AttivoComunicazioniVLEO
NORAD 52346·PAYLOAD·🇺🇸 United States

Lanciato Apr 29, 2022 da Cape Canaveral Space Force Station

Loading…

Prossimi Passaggi (prossime 24 ore)

TLE

AggiornatoSource: CelesTrak SupGP

Epoca: Sep 14, 2026, 21:42 UTC

1 52346C 22045R   26257.90465278  .00032939  00000+0  10593-2 0  2578
2 52346  53.1580  59.8300 0001128  80.6655  75.5325 15.31683301    10

Traccia STARLINK-3812 in tempo reale con AllMySat

Download on the App Store